Lid_Strength_Index
5 5 6 7 9 7 9 9 11 10 8 6 5 6 6 5 4 4 4 4 3 3 3 3 2 2 2 2 2 2 1 1
6 5 6 7 6 9 9 14 14 11 10 10 7 7 6 6 5 4 3 4 3 3 3 2 2 2 2 2 2 2 1 1
6 7 8 7 8 8 8 9 12 13 11 6 7 6 6 5 4 4 3 4 3 3 2 2 2 2 2 2 2 2 1 1
8 6 5 6 7 8 10 11 9 10 10 5 5 5 4 4 4 3 3 3 3 3 3 3 2 2 2 2 2 2 1 1
10 8 6 7 7 7 7 8 10 11 10 5 4 4 5 4 4 4 1 3 3 3 3 3 3 2 2 2 2 1 1 1
11 9 7 8 8 7 8 10 10 9 9 7 6 6 5 4 4 3 2 4 3 3 3 3 2 2 2 2 2 1 2 2
8 7 7 8 8 8 8 8 10 8 8 7 6 5 5 4 3 3 3 4 3 3 3 3 3 3 2 2 2 1 2 2
9 7 8 8 7 7 7 7 8 7 8 5 4 4 5 4 4 4 4 3 4 3 3 3 3 3 2 2 2 1 2 2
11 8 8 10 8 7 7 7 7 9 7 5 5 5 5 5 4 4 4 3 3 3 3 3 3 2 2 2 2 2 2 2
11 10 14 8 6 6 7 6 6 6 5 5 5 4 4 3 4 4 3 3 3 2 3 2 2 2 2 2 2 2 2 2
12 12 10 8 7 7 7 8 5 6 5 5 4 4 4 3 3 3 3 3 2 2 2 2 2 2 2 2 2 2 2 2
11 13 15 9 7 5 6 11 6 6 6 6 5 7 5 3 3 3 2 2 2 2 2 2 2 2 2 3 3 3 2 2
11 12 10 8 6 5 12 10 6 6 6 6 6 6 4 3 3 3 2 2 0 2 3 3 2 2 3 3 3 2 2 2
11 13 15 6 7 10 7 5 5 5 5 5 4 4 4 3 3 3 3 2 2 3 3 2 2 2 3 3 2 2 2 2
9 10 6 5 6 5 4 5 5 5 4 4 4 4 4 4 3 3 2 2 2 3 3 2 2 2 3 3 2 2 2 2
8 7 7 6 5 4 4 5 5 5 5 5 5 4 4 4 3 3 3 3 3 3 3 3 2 2 2 2 2 2 2 2
9 8 7 6 5 5 5 4 4 4 4 5 5 5 5 5 4 4 4 4 3 3 3 3 3 2 2 2 2 2 2 2
12 7 7 7 5 4 5 5 4 4 4 4 5 5 5 5 4 4 4 4 4 3 3 3 2 2 2 2 2 2 3 3
9 6 6 5 4 4 4 4 3 4 4 4 4 4 4 4 4 4 4 3 3 3 3 3 3 2 2 2 2 2 3 3